Regional Weather Roundup
Issued by NWS New Orleans/Baton Rouge, LA

Home | Current Version | Previous Version | Text Only | Print | Product List | Glossary On
Versions: 1 2 3 4 5 6 7 8 9 10 11 12 13 14 15 16 17 18 19 20 21 22 23 24 25 26 27 28 29 30 31 32 33 34 35 36 37 38 39 40 41 42 43 44 45 46 47 48 49 50
000
ASUS44 KLIX 062011
RWRLIX
NEW ORLEANS REGIONAL WEATHER ROUNDUP
NATIONAL WEATHER SERVICE NEW ORLEANS LA
300 PM CDT MON JUL 06 2015

NOTE: "FAIR" INDICATES FEW OR NO CLOUDS BELOW 12,000 FEET WITH NO
      SIGNIFICANT WEATHER AND/OR OBSTRUCTIONS TO VISIBILITY.
      SKY/WX - SKY CONDITION AND SIGNIFICANT WEATHER.
      TMP - AIR TEMPERATURE.     DP    - DEWPOINT TEMPERATURE.
      RH  - RELATIVE HUMIDITY.   PRES  - PRESSURE.
      HI  - HEAT INDEX.          WCI   - WIND CHILL INDEX.

*  THESE STATIONS ARE NOT NWS OR FAA STATIONS AND ARE NOT UNDER
   NWS QUALITY CONTROL.

LAZ038-040-048-061>063-065>067-069-062100-
SOUTHEAST LOUISIANA

CITY           SKY/WX    TMP DP  RH WIND       PRES   REMARKS
N.O. AUDUBON     N/A     94  77  57 MISG        N/A  HX 107
N.O. INTL ARPT PTSUNNY   91  73  55 S8        30.12F HX  99
N.O. LAKEFRONT MOSUNNY   92  77  61 NE9       30.13F HX 105
N.O. DOWNTOWN*   N/A     95  72  46 SW5       30.13F HX 103
RESERVE*       CLOUDY    92  73  54 S5        30.12F HX 101
SLIDELL        MOSUNNY   90  76  63 SW5       30.13F HX 101
BATON ROUGE    MOSUNNY   89  73  59 S7        30.12F HX  97
BOOTHVILLE     PTSUNNY   88  77  69 SW7       30.15F HX 100
BELLE CHASSE   CLOUDY    89  76  65 SE12      30.12F HX 100
BOGALUSA*        N/A     90  71  54 SW6       30.15F HX  96
GALLIANO*      MOCLDY    91  74  58 SW7       30.14S HX 100
NEW ROADS*       N/A    N/A N/A N/A S8        30.12S
GONZALES*        N/A     91  73  55 SW7       30.11F HX  99
HAMMOND*       MOSUNNY   91  70  49 S9        30.14F HX  97
HOUMA*         PTSUNNY   90  77  66 S5        30.13F HX 102
PORT FOURCHON* PTCLDY    88  75  66 S8        30.15S HX  97

$$

MSZ070-080>082-062100-
SOUTHERN MISSISSIPPI

CITY           SKY/WX    TMP DP  RH WIND       PRES   REMARKS
MCCOMB         MOSUNNY   88  76  67 S6        30.14F HX  99
GULFPORT       PTSUNNY   86  75  69 S5        30.15F HX  95
BILOXI         NOT AVBL
PASCAGOULA     MOSUNNY   88  74  63 VRB6      30.15F HX  96
STENNIS ARPT*  MOSUNNY   88  73  62 E9        30.14F HX  96

$$

COASTAL OBSERVATIONS
LAKE AND NEARSHORE STATIONS

STATION/POSITION TIME  TEMP    WIND        PRES    WAVE
                       AIR SEA DIR/SP/G            HT/PER
                 (UTC) (F)     (DEG/KT/KT) (MB)    (FT/S)
PASCAGOULA       1900   87     180/  4/  7 1021.2
WAVELAND YACHT   1900   82 82  140/  6/  8 1021.6
GRAND ISLE       1900   87 85  170/  5/  8 1021.1
SOUTHWEST PASS   1900   90 83  210/  3/  4 1021.5
NEW CANAL        1900   90 85  190/  3/  6 1019.8
SHELL BEACH      1900   87 84  160/  5/  9 1020.4

OFFSHORE STATIONS

STATION/POSITION TIME  TEMP    WIND        PRES    WAVE
                       AIR SEA DIR/SP/G            HT/PER
                 (UTC) (F)     (DEG/KT/KT) (MB)    (FT/S)
64 S DAUPHIN ISL 1950   84 89  110/  6/  8 1021.4    1/ 6

$$



USA.gov is the U.S. government's official web portal to all federal, state and local government web resources and services.